Wetbulb
70.55 71.95 72.56 73.69 74.06 73.85 73.30 72.87 73.00 73.05 73.42 73.89 73.91 73.99 73.87 74.01 74.13 74.02 74.26 74.71 75.21 75.48 74.86 74.06 74.49 73.94 73.66 73.72 73.48 72.84 72.59 72.81 72.59 73.33 73.35 73.67 73.04 72.79 72.97 73.07 72.29 71.59 72.63
71.22 71.98 71.75 73.07 73.66 74.00 73.80 73.10 72.86 73.25 73.69 73.88 73.85 73.73 73.61 73.70 74.05 74.13 74.19 74.54 74.91 75.64 75.04 74.47 74.34 73.69 73.36 73.58 73.17 72.81 72.73 72.29 71.81 72.14 72.78 73.07 73.24 72.61 72.77 72.41 72.03 71.72 72.18
71.32 71.95 72.61 72.13 73.27 73.75 74.10 73.54 73.42 73.73 74.11 74.11 73.92 73.73 73.78 73.78 74.00 74.00 73.91 74.39 74.88 75.26 74.86 74.37 73.94 73.46 73.91 73.25 72.54 72.50 72.30 71.95 71.97 72.07 72.23 69.92 70.80 72.75 72.75 72.10 71.67 72.26 71.99
72.09 71.69 72.13 72.03 72.75 73.52 73.64 73.64 73.46 74.19 74.23 74.03 73.90 73.73 73.80 74.00 73.87 73.80 73.61 73.58 74.60 75.10 74.96 74.54 73.81 74.07 74.16 72.42 72.15 71.90 71.83 71.58 71.12 71.62 69.87 69.66 70.40 72.40 72.15 72.05 71.69 72.19 71.87
71.99 71.88 72.30 71.40 71.99 73.03 73.30 73.40 73.36 73.62 73.49 73.42 73.53 73.95 74.03 74.10 74.05 73.82 73.30 73.23 74.50 74.65 74.59 74.29 74.44 73.91 72.61 71.46 71.47 71.39 71.38 70.91 70.21 69.47 69.40 69.14 69.30 71.41 71.96 71.89 71.71 72.00 71.50
71.99 72.43 70.30 70.63 71.41 72.64 73.17 73.19 73.30 72.99 72.30 72.76 73.05 73.56 74.12 74.17 74.15 73.47 72.84 73.37 74.29 74.30 74.44 74.74 74.22 72.42 71.18 70.69 70.78 70.82 69.41 70.05 68.94 68.84 68.86 70.27 69.58 71.61 71.61 71.80 71.22 71.18 71.17
71.31 70.82 70.77 70.16 71.21 72.36 73.24 73.40 73.11 72.52 71.94 72.25 72.76 73.00 73.49 74.03 73.90 72.98 72.42 73.03 73.67 73.68 73.97 73.70 72.54 71.31 70.58 70.40 70.63 70.27 68.89 68.51 66.67 64.93 67.74 68.86 69.45 71.93 71.44 71.34 71.34 71.08 71.05
71.91 71.13 70.82 71.17 71.17 71.64 72.46 72.55 72.04 71.70 71.69 71.66 72.14 72.56 73.21 73.22 72.65 72.36 72.38 72.46 72.97 72.67 72.61 72.16 71.22 70.56 70.32 70.19 69.99 69.32 68.85 67.56 66.09 63.15 63.85 67.88 70.28 71.78 71.66 71.31 70.00 69.93 70.11
72.29 71.00 69.87 70.43 71.10 70.77 70.65 70.74 70.54 70.96 71.29 71.40 71.65 71.85 72.03 71.81 71.54 71.63 71.94 72.12 72.29 71.99 71.73 71.31 70.48 70.08 69.92 69.79 69.50 68.55 67.59 67.83 67.20 67.07 67.81 67.14 70.50 71.58 71.17 70.63 70.42 70.09 70.01
70.23 72.11 70.40 70.02 70.11 69.30 69.71 69.68 70.07 70.34 70.38 70.76 71.07 70.94 70.58 70.79 71.00 71.03 71.03 71.48 71.59 71.47 71.05 70.53 69.75 69.46 69.48 69.17 68.52 67.81 67.23 67.57 67.02 66.82 68.12 68.16 70.33 71.46 70.80 70.83 70.58 70.18 69.86
68.87 70.43 70.80 70.05 69.80 69.25 69.07 70.06 70.18 70.65 70.36 70.29 70.65 70.38 69.19 71.06 70.83 70.88 70.43 70.37 70.66 70.11 70.22 69.74 69.08 68.82 68.57 68.46 68.13 67.48 67.01 66.92 66.97 66.83 64.67 68.13 70.01 71.27 70.92 70.90 70.61 70.03 69.83
64.47 68.37 70.54 70.31 69.57 69.44 70.45 68.79 68.78 70.17 70.43 70.70 70.88 70.91 70.59 70.49 70.43 70.99 70.11 69.02 69.59 68.67 69.05 68.91 68.44 68.04 67.86 67.29 66.75 67.37 66.57 67.09 65.95 66.38 66.85 67.75 70.11 71.34 70.75 70.25 70.23 70.03 69.47
55.06 69.35 70.31 70.37 70.21 70.79 69.45 68.39 68.54 68.53 69.28 70.00 70.25 70.27 70.52 70.75 70.47 70.31 69.94 69.46 69.46 68.60 68.58 68.35 67.81 67.70 67.50 67.05 66.89 66.25 66.78 66.60 65.57 66.08 66.68 67.11 69.69 71.31 70.87 70.25 69.71 69.78 69.02
51.69 58.83 69.89 70.08 69.46 68.99 69.77 69.69 68.31 68.55 68.20 68.98 69.83 70.51 70.33 70.04 69.70 69.28 69.00 68.69 68.96 68.67 68.08 67.97 67.18 67.20 66.89 67.12 66.84 66.65 66.40 65.76 64.95 65.46 66.29 66.51 68.32 70.60 70.92 69.98 69.70 69.42 68.26
52.13 54.59 67.80 69.01 68.84 69.31 69.65 68.15 69.46 68.84 68.41 68.97 68.86 70.29 70.41 69.28 68.10 68.23 68.41 68.75 69.04 68.80 68.80 67.90 67.34 67.09 66.85 66.51 66.80 65.80 66.03 65.02 66.05 66.40 66.30 65.94 66.74 68.78 70.71 69.87 69.74 69.33 68.54
54.20 54.92 56.11 57.58 61.61 67.12 67.14 66.42 67.18 68.33 69.36 68.47 68.95 69.72 70.18 69.52 68.36 68.65 66.88 68.80 68.76 69.01 68.74 68.55 67.48 66.67 66.27 65.96 66.00 66.06 64.74 65.28 65.66 65.60 65.35 65.55 65.40 67.09 68.75 69.91 69.95 69.37 68.61
53.28 54.57 54.57 55.83 56.71 57.05 58.27 62.65 66.65 67.23 68.35 67.95 69.30 69.53 69.92 69.95 68.89 68.86 68.13 68.04 68.65 68.89 68.52 68.18 67.81 66.87 65.82 65.82 65.60 65.50 65.39 65.10 64.83 65.96 65.58 64.95 64.72 64.41 65.69 67.95 68.82 69.10 68.97
51.84 51.71 52.99 54.54 53.79 54.03 54.56 56.48 59.15 62.45 65.68 67.71 68.18 69.07 70.18 69.97 69.67 68.42 68.48 67.58 68.58 68.48 68.36 67.62 67.41 66.47 65.95 65.69 64.65 66.06 65.32 65.42 65.33 64.81 65.75 65.44 64.92 65.53 63.78 64.79 66.67 67.59 67.85
49.24 50.02 50.06 51.06 51.29 51.82 52.81 54.35 55.64 57.26 60.84 65.34 67.36 68.08 68.71 69.31 69.47 68.33 68.53 68.17 67.59 67.77 67.53 67.54 66.86 66.83 65.69 64.97 64.98 65.59 64.73 64.51 64.63 65.24 64.55 65.18 64.68 64.33 64.30 63.35 64.08 64.48 65.96
47.43 47.86 47.91 49.33 50.22 50.74 51.29 51.71 52.91 54.07 55.62 58.25 64.74 66.84 67.59 68.57 69.26 68.66 67.93 66.45 67.34 66.33 66.38 67.03 66.06 66.74 66.04 65.29 65.41 65.19 64.65 64.68 64.62 63.93 64.25 64.91 65.48 64.91 64.10 63.23 63.40 63.31 62.46
44.46 44.74 45.50 45.90 47.23 48.26 48.41 48.22 48.34 49.05 51.59 53.24 56.19 59.33 66.82 67.49 68.30 67.89 68.15 66.69 66.63 66.47 66.71 66.04 66.18 65.56 65.14 65.46 63.09 61.28 62.28 64.16 64.03 64.13 63.83 63.59 64.59 64.65 63.94 63.65 62.70 63.11 62.19
41.89 41.95 42.39 42.76 43.39 44.19 45.72 46.75 47.65 48.36 50.36 52.30 54.57 56.49 58.21 63.39 67.51 67.92 66.73 66.90 67.66 66.37 65.42 66.02 66.04 65.16 64.89 65.44 62.01 61.06 58.71 60.58 63.09 63.82 63.38 63.72 64.15 63.44 63.34 62.92 62.04 61.91 61.38
38.35 38.40 39.30 39.49 40.22 41.35 42.59 43.42 45.13 47.15 48.03 49.02 51.18 53.42 56.13 59.38 64.76 66.97 66.88 66.73 67.09 67.02 65.20 65.94 66.52 65.41 63.69 64.52 63.61 60.17 56.40 55.64 58.28 61.31 62.91 63.24 62.93 63.17 63.48 62.65 61.60 61.57 60.88
35.82 36.58 36.99 37.54 37.50 39.34 40.09 39.40 39.34 40.57 42.69 46.01 47.70 50.43 51.85 55.06 58.28 62.96 66.89 67.06 66.42 66.99 66.53 64.78 66.95 66.52 64.76 63.08 63.86 63.84 59.82 58.71 55.74 54.83 59.93 63.13 62.00 61.73 61.85 62.62 62.28 62.11 61.79
35.12 34.55 34.95 35.38 36.47 36.78 36.76 37.43 36.98 37.67 41.84 44.03 45.27 45.97 48.09 51.19 55.23 59.13 62.76 66.06 66.79 66.26 67.19 66.00 65.08 66.16 65.29 64.13 63.87 63.26 61.53 59.19 59.26 56.50 54.87 57.74 59.86 61.56 62.03 62.26 62.87 62.64 62.46
33.07 32.91 32.82 33.34 34.01 34.95 35.50 35.53 35.34 35.57 38.20 40.22 42.01 42.29 44.39 47.32 50.89 55.25 58.66 62.43 65.43 66.60 66.06 66.82 66.44 66.21 65.54 64.20 64.53 63.97 63.13 61.06 59.43 57.36 55.38 56.70 59.11 59.45 62.09 62.11 62.17 62.50 62.73
MSLP
1008.92 1009.06 1008.85 1008.84 1008.96 1009.10 1009.27 1009.55 1009.90 1010.30 1010.77 1011.06 1011.33 1011.68 1012.02 1012.29 1012.48 1012.80 1013.10 1013.36 1013.54 1013.84 1014.06 1014.41 1014.64 1015.03 1015.23 1015.41 1015.62 1015.98 1016.00 1016.02 1016.12 1016.29 1016.43 1016.68 1016.79 1016.98 1017.24 1017.34 1017.52 1017.64 1017.81
1008.26 1008.89 1009.25 1009.02 1009.22 1009.48 1009.82 1009.98 1010.24 1010.49 1010.89 1011.27 1011.57 1011.86 1012.38 1012.53 1012.72 1012.94 1013.15 1013.40 1013.64 1014.09 1014.30 1014.65 1014.87 1015.07 1015.25 1015.48 1015.72 1016.15 1016.49 1016.33 1016.40 1016.66 1016.79 1016.95 1017.16 1017.31 1017.58 1017.69 1017.88 1018.00 1017.98
1008.40 1008.81 1009.32 1009.46 1009.27 1009.54 1009.92 1010.24 1010.50 1010.80 1011.06 1011.48 1011.66 1011.99 1012.31 1012.69 1012.99 1013.23 1013.42 1013.60 1013.84 1014.13 1014.40 1014.72 1014.98 1015.28 1015.43 1015.69 1016.00 1016.22 1016.54 1016.76 1016.84 1017.04 1017.21 1017.41 1017.61 1017.58 1017.88 1018.04 1018.13 1018.24 1018.27
1008.06 1008.87 1009.45 1009.78 1009.66 1009.68 1010.04 1010.53 1010.77 1010.98 1011.20 1011.61 1011.91 1012.17 1012.46 1012.79 1013.03 1013.38 1013.67 1013.87 1014.02 1014.20 1014.35 1014.71 1015.00 1015.26 1015.49 1015.86 1016.19 1016.44 1016.79 1017.04 1016.87 1017.18 1017.48 1017.61 1017.80 1017.95 1018.02 1018.38 1018.41 1018.48 1018.58
1007.90 1008.39 1009.27 1009.78 1010.12 1010.11 1010.27 1010.65 1010.90 1011.07 1011.31 1011.64 1011.95 1012.31 1012.60 1012.89 1013.22 1013.54 1013.70 1014.01 1014.27 1014.51 1014.65 1014.77 1014.95 1015.18 1015.50 1016.02 1016.42 1016.61 1016.93 1017.07 1017.08 1017.32 1017.31 1017.61 1017.88 1018.11 1018.39 1018.50 1018.75 1018.76 1018.76
1008.09 1008.21 1008.95 1009.44 1010.05 1010.33 1010.50 1010.90 1011.16 1011.42 1011.61 1011.87 1012.11 1012.36 1012.64 1012.96 1013.26 1013.56 1013.89 1014.15 1014.36 1014.49 1014.74 1014.98 1015.20 1015.32 1015.55 1016.03 1016.51 1016.75 1017.04 1017.13 1017.47 1017.49 1017.43 1017.55 1017.86 1018.37 1018.56 1018.64 1018.88 1019.07 1019.04
1008.91 1008.96 1009.10 1009.15 1009.77 1010.22 1010.40 1010.85 1011.30 1011.55 1011.68 1011.85 1012.14 1012.32 1012.58 1012.94 1013.37 1013.70 1014.01 1014.25 1014.51 1014.76 1014.90 1015.08 1015.39 1015.53 1015.60 1015.94 1016.52 1016.91 1017.23 1017.38 1017.50 1017.40 1017.18 1017.66 1017.82 1018.20 1018.55 1019.01 1018.99 1019.18 1019.29
1009.40 1009.59 1009.48 1009.57 1009.50 1009.88 1010.34 1010.65 1011.04 1011.49 1011.74 1011.88 1012.24 1012.52 1012.78 1013.00 1013.33 1013.70 1013.98 1014.22 1014.49 1014.78 1015.12 1015.31 1015.36 1015.55 1015.80 1016.04 1016.26 1016.70 1017.31 1017.66 1017.52 1017.58 1017.68 1018.02 1017.73 1018.23 1018.69 1018.99 1019.20 1019.27 1019.54
1009.25 1009.70 1009.99 1009.98 1009.96 1009.93 1010.26 1010.70 1010.99 1011.33 1011.48 1011.73 1012.03 1012.35 1012.70 1012.99 1013.31 1013.64 1014.06 1014.35 1014.46 1014.62 1015.10 1015.48 1015.69 1015.77 1015.79 1016.06 1016.43 1016.68 1017.32 1017.58 1017.83 1018.15 1018.19 1018.16 1017.96 1018.23 1018.73 1018.89 1019.46 1019.69 1019.86
1009.17 1009.52 1009.80 1009.92 1010.11 1010.30 1010.36 1010.60 1010.86 1011.12 1011.37 1011.59 1011.73 1012.02 1012.21 1012.71 1013.09 1013.50 1013.92 1014.27 1014.57 1014.72 1014.91 1015.22 1015.54 1015.91 1016.08 1016.12 1016.47 1016.69 1017.22 1017.44 1017.50 1017.86 1017.94 1017.81 1017.79 1018.09 1018.54 1019.02 1019.40 1019.75 1019.95
1009.33 1009.43 1009.70 1009.77 1009.94 1010.30 1010.55 1010.44 1010.78 1010.96 1011.14 1011.34 1011.61 1011.82 1012.10 1012.34 1012.76 1012.99 1013.48 1014.13 1014.49 1014.78 1014.88 1015.10 1015.39 1015.62 1016.03 1016.28 1016.50 1016.62 1017.00 1017.32 1017.19 1017.34 1017.52 1017.65 1017.74 1018.09 1018.35 1018.99 1019.17 1019.64 1019.95
1009.56 1009.57 1009.67 1009.79 1009.91 1009.97 1010.20 1010.57 1010.65 1010.84 1011.09 1011.15 1011.43 1011.89 1012.01 1011.96 1012.26 1012.55 1012.90 1013.48 1014.03 1014.61 1014.94 1015.12 1015.31 1015.59 1015.83 1016.22 1016.59 1016.59 1016.64 1017.06 1017.02 1016.92 1016.94 1017.19 1017.44 1017.85 1018.14 1018.68 1019.10 1019.50 1019.85
1009.37 1009.48 1009.50 1009.63 1009.61 1009.79 1010.00 1010.30 1010.54 1010.59 1010.68 1010.91 1011.19 1011.57 1011.98 1012.03 1012.09 1012.24 1012.47 1012.85 1013.44 1014.10 1014.72 1014.94 1015.33 1015.48 1015.73 1015.96 1016.34 1016.60 1016.34 1016.54 1016.97 1016.76 1016.55 1016.92 1017.07 1017.19 1017.99 1018.42 1018.72 1019.21 1019.52
1009.27 1009.18 1009.32 1009.42 1009.65 1009.83 1009.54 1010.27 1010.04 1010.34 1010.46 1010.62 1010.81 1011.03 1011.60 1011.80 1012.03 1012.07 1012.10 1012.17 1012.70 1013.27 1013.93 1014.44 1014.95 1015.17 1015.10 1015.45 1015.92 1016.28 1016.27 1016.11 1016.32 1016.49 1016.46 1016.73 1016.98 1017.27 1017.55 1018.18 1018.53 1018.92 1019.37
1009.44 1009.72 1009.30 1009.37 1009.40 1009.45 1009.83 1010.04 1009.94 1009.95 1010.07 1009.94 1010.16 1010.33 1010.48 1011.30 1011.44 1011.54 1011.82 1011.92 1012.15 1012.57 1013.12 1013.68 1014.15 1014.72 1014.77 1014.73 1015.33 1016.08 1016.04 1015.95 1016.19 1016.28 1016.49 1016.81 1017.13 1017.15 1017.23 1017.87 1018.21 1018.63 1019.07
1010.84 1010.96 1010.92 1011.04 1010.90 1010.30 1009.90 1009.97 1009.96 1009.65 1009.49 1009.46 1009.32 1009.26 1009.46 1009.58 1010.38 1010.94 1011.29 1011.54 1011.67 1012.03 1012.30 1012.86 1013.34 1013.88 1014.21 1014.01 1014.49 1015.24 1015.84 1015.77 1016.10 1016.16 1016.54 1016.81 1016.85 1017.02 1017.26 1017.66 1017.99 1018.37 1018.76
1011.71 1011.78 1011.50 1011.42 1011.54 1011.44 1011.21 1010.76 1010.02 1009.43 1009.01 1009.31 1008.71 1008.70 1008.35 1008.72 1009.08 1009.82 1010.39 1010.79 1011.08 1011.30 1011.69 1012.21 1012.59 1013.12 1013.70 1014.09 1013.80 1014.43 1015.08 1015.33 1015.54 1015.99 1016.24 1016.45 1016.54 1016.88 1017.07 1017.37 1017.65 1018.05 1018.41
1012.02 1011.98 1012.25 1012.20 1012.06 1011.87 1011.67 1011.30 1010.58 1010.00 1009.52 1008.94 1008.33 1008.55 1008.44 1007.94 1008.26 1008.84 1009.51 1009.93 1010.10 1010.51 1010.92 1011.76 1012.11 1012.70 1013.03 1013.36 1013.76 1013.68 1014.75 1015.04 1015.12 1015.43 1015.83 1016.14 1016.58 1016.73 1016.92 1017.15 1017.42 1017.64 1017.97
1012.75 1012.71 1012.78 1012.79 1012.78 1012.46 1011.97 1011.62 1011.09 1010.50 1009.95 1009.29 1008.37 1008.15 1008.23 1007.78 1008.22 1008.73 1008.94 1009.19 1009.53 1010.27 1010.24 1010.95 1011.55 1011.75 1012.27 1012.64 1013.16 1013.16 1013.82 1014.70 1014.89 1014.94 1015.18 1015.64 1016.09 1016.11 1016.43 1016.73 1017.04 1017.39 1017.64
1013.61 1013.63 1013.50 1013.40 1013.19 1013.06 1012.78 1012.15 1011.58 1011.07 1010.49 1010.02 1009.08 1008.09 1007.81 1007.71 1007.77 1008.23 1008.44 1008.53 1009.40 1009.86 1009.80 1009.96 1010.33 1011.12 1011.29 1011.82 1012.38 1012.98 1013.08 1013.79 1014.44 1014.55 1014.87 1014.90 1015.22 1015.48 1015.81 1016.30 1016.69 1017.05 1017.31
1014.57 1014.56 1014.36 1014.04 1013.94 1013.81 1013.50 1013.25 1012.69 1012.12 1011.26 1010.33 1009.53 1008.85 1007.56 1006.89 1007.46 1007.76 1007.39 1008.38 1009.06 1009.67 1009.13 1009.34 1009.70 1010.25 1010.94 1011.48 1012.32 1012.96 1013.32 1013.20 1013.74 1013.97 1014.16 1014.45 1014.65 1014.68 1015.13 1015.48 1015.99 1016.48 1016.90
1015.81 1015.92 1015.67 1015.34 1015.18 1015.14 1014.87 1014.32 1013.75 1012.95 1011.84 1011.06 1009.86 1008.83 1007.82 1007.36 1006.71 1006.53 1006.89 1008.10 1008.51 1008.96 1008.86 1008.79 1008.73 1009.26 1009.93 1010.75 1011.52 1012.27 1013.23 1013.70 1013.29 1013.40 1013.56 1013.79 1014.05 1014.21 1014.63 1014.92 1015.22 1015.65 1016.06
1017.30 1017.34 1016.86 1016.45 1016.18 1016.09 1015.70 1015.01 1014.09 1013.10 1012.07 1011.18 1010.21 1009.40 1008.64 1007.85 1006.92 1006.31 1006.65 1007.45 1007.21 1008.16 1007.89 1008.04 1008.06 1008.16 1008.67 1009.83 1009.95 1010.86 1012.06 1012.17 1012.74 1013.00 1013.18 1013.12 1013.40 1013.75 1013.96 1014.30 1014.49 1014.80 1015.32
1018.55 1018.29 1017.58 1017.17 1016.99 1016.55 1016.26 1015.76 1015.22 1014.15 1012.85 1011.70 1010.96 1009.81 1009.17 1008.55 1007.62 1006.67 1006.01 1005.64 1006.03 1006.87 1006.91 1007.15 1007.28 1007.09 1007.77 1008.12 1009.21 1009.32 1009.57 1009.96 1011.54 1012.34 1012.42 1012.28 1012.50 1012.99 1013.46 1013.68 1013.97 1014.25 1014.56
1018.90 1018.36 1018.09 1017.78 1017.19 1016.98 1016.53 1016.02 1015.49 1014.42 1013.24 1011.92 1011.19 1010.22 1009.41 1008.59 1007.94 1006.93 1006.11 1005.34 1005.23 1005.29 1005.53 1005.45 1005.75 1006.36 1006.64 1006.90 1007.42 1008.00 1009.08 1009.56 1009.71 1010.89 1011.54 1011.82 1012.07 1012.04 1012.55 1012.95 1013.22 1013.48 1013.84
1019.39 1019.13 1018.64 1017.99 1017.55 1017.06 1016.37 1015.78 1015.31 1014.49 1013.32 1012.24 1011.36 1010.50 1009.67 1008.72 1007.97 1007.04 1006.14 1005.46 1004.55 1004.58 1004.41 1004.23 1004.54 1004.64 1005.49 1006.09 1007.17 1007.32 1007.73 1008.36 1008.57 1009.76 1010.34 1010.84 1010.90 1011.14 1011.62 1012.15 1012.53 1012.80 1013.04
Wind_Speed
4 4 9 11 12 12 12 13 13 13 12 13 13 13 13 13 14 14 14 13 13 14 14 12 9 8 8 10 10 10 12 11 12 13 13 15 16 15 13 13 13 11 14
10 8 5 11 12 11 10 12 13 13 13 13 13 13 12 12 13 13 13 13 12 12 12 10 8 7 7 8 10 11 11 12 13 13 14 14 13 11 10 14 12 11 14
9 10 7 6 12 12 11 11 12 13 13 12 13 14 13 12 12 11 11 11 11 11 11 9 7 5 7 7 8 10 11 10 11 12 13 6 5 12 17 14 14 14 15
14 9 7 7 9 11 11 10 11 12 13 13 13 13 13 13 12 11 10 10 10 10 10 10 8 7 7 7 7 9 9 10 10 9 6 6 8 13 15 15 15 15 15
11 12 10 10 7 9 11 10 10 11 13 13 13 13 13 13 12 11 11 10 9 8 8 10 10 9 7 7 6 8 9 8 5 3 7 7 6 9 13 14 14 15 15
9 12 14 13 10 9 9 9 9 10 10 11 12 13 13 13 12 11 10 9 9 9 7 7 9 8 8 7 7 7 7 5 8 3 4 9 6 11 11 11 12 14 15
7 6 10 15 13 10 10 10 10 10 11 12 12 12 13 13 12 11 10 10 9 7 7 8 8 8 9 9 7 6 6 6 4 3 3 4 7 13 12 14 14 15 16
7 5 7 9 12 13 11 11 11 11 11 11 11 11 12 12 12 12 11 10 10 9 8 8 9 9 8 8 9 8 7 6 5 3 2 3 11 13 15 15 14 15 16
9 8 5 5 6 10 11 9 10 11 12 12 12 12 12 12 12 12 11 10 9 10 9 8 7 7 8 7 7 6 7 6 6 5 6 3 12 14 15 15 13 15 16
6 7 8 7 5 5 6 10 10 11 11 11 13 13 13 12 12 12 11 10 9 9 10 11 10 7 6 6 6 5 6 7 5 4 5 6 16 16 16 16 16 16 15
1 7 7 7 7 6 5 7 9 11 11 12 11 12 11 7 9 11 11 10 9 9 10 11 10 10 7 6 5 5 3 3 4 4 4 11 15 17 17 15 16 16 16
4 2 5 6 7 7 7 5 6 7 6 7 8 9 7 8 9 10 11 13 11 9 9 10 10 9 7 3 2 4 2 3 2 4 4 17 15 18 18 17 16 16 15
1 4 6 6 6 6 5 5 4 4 4 5 7 8 6 6 7 7 6 7 7 9 5 6 5 4 5 3 4 4 4 4 3 3 4 11 15 18 18 19 18 17 17
7 2 7 6 4 5 3 4 6 6 6 5 6 10 7 5 5 6 6 8 8 7 8 7 5 6 7 6 5 5 6 4 3 2 6 12 12 16 20 20 19 18 16
8 9 4 7 6 6 5 4 5 5 7 8 8 10 9 6 6 6 6 7 7 8 8 8 8 7 8 7 5 6 6 6 5 3 3 11 12 14 18 20 20 20 18
14 15 16 13 13 7 4 5 5 4 5 7 9 11 13 11 7 7 6 8 9 9 9 9 9 9 8 7 7 7 7 5 6 6 4 6 12 13 14 18 19 19 19
12 14 16 15 15 13 11 10 5 6 7 6 7 12 16 13 13 10 9 7 9 9 12 10 10 8 6 6 7 7 5 6 4 6 5 4 6 11 13 15 17 17 18
14 16 14 14 16 17 14 9 7 7 7 6 10 5 13 14 14 10 10 9 9 9 10 9 10 9 9 7 5 6 4 4 5 6 7 5 5 6 7 10 12 15 16
14 15 15 15 16 16 16 13 12 10 7 8 7 8 10 14 13 7 9 8 8 8 8 11 9 11 9 8 6 7 6 5 6 4 6 7 8 7 6 10 12 11 14
15 15 15 13 14 14 11 12 11 11 10 10 11 9 12 12 12 15 5 5 7 5 7 10 13 9 9 10 8 7 7 6 5 5 6 6 8 9 8 7 7 8 15
16 17 17 18 17 14 11 12 12 12 12 11 9 16 12 12 16 12 8 3 7 11 9 10 9 13 7 8 5 2 2 7 8 6 6 5 7 9 9 9 7 7 8
16 17 17 16 16 14 11 10 10 11 10 12 12 12 13 13 11 11 7 14 11 11 11 10 13 9 6 10 7 5 4 2 7 8 5 7 10 5 8 10 9 10 9
16 16 16 17 16 14 14 12 11 11 11 10 10 11 12 14 15 13 18 18 14 13 11 14 13 16 12 9 10 7 4 6 4 4 10 8 9 8 8 9 10 11 10
14 14 15 15 16 14 15 13 16 12 13 11 12 12 14 15 15 14 19 18 20 15 16 15 12 12 12 13 7 10 3 6 5 2 3 11 8 9 10 8 9 10 10
15 16 14 15 15 15 15 14 12 15 12 12 13 17 16 15 14 15 13 19 19 14 16 17 17 15 13 12 14 12 8 2 3 4 4 4 3 6 8 9 10 9 11
16 15 15 15 15 16 16 15 15 16 16 14 13 14 13 12 11 15 14 11 17 16 16 15 20 20 16 9 9 10 13 12 8 4 3 4 10 5 8 8 8 9 9
Wind_Direction
139 155 147 136 133 136 138 136 134 131 132 129 125 119 113 109 108 108 106 101 104 112 115 118 112 110 106 102 102 100 104 102 101 103 104 109 108 113 119 107 107 113 114
141 154 171 140 134 132 137 141 139 138 138 136 130 123 120 117 116 112 114 113 111 116 120 121 118 120 110 102 102 103 102 102 106 110 107 106 109 114 122 112 113 115 117
141 144 150 147 138 139 144 148 146 146 141 141 136 133 129 126 124 121 120 121 121 130 136 134 132 135 125 118 108 107 112 117 119 121 110 100 99 111 119 116 118 115 114
139 135 135 146 140 138 138 146 149 150 145 146 142 137 135 135 134 132 131 133 135 130 132 140 145 138 132 135 124 121 126 123 145 147 105 124 107 118 124 124 124 121 118
148 146 143 142 138 133 135 145 155 156 150 148 147 145 142 140 140 141 141 141 131 131 141 155 150 132 144 145 138 139 132 144 157 74 143 125 117 127 131 133 124 123 121
148 147 145 141 140 137 133 145 155 155 151 149 150 149 148 148 149 148 148 145 142 141 142 151 135 138 149 150 150 157 151 140 79 65 58 124 119 134 136 125 129 123 119
55 107 148 139 142 143 142 153 160 163 159 155 159 157 153 152 151 152 153 151 147 145 142 134 134 151 157 156 161 170 121 111 91 141 129 122 135 136 138 137 130 132 123
110 93 131 140 146 151 156 160 166 168 166 160 163 161 158 154 154 158 160 161 158 159 150 145 151 161 172 175 169 163 141 125 81 173 355 184 144 143 147 144 142 134 124
128 131 140 142 159 157 156 162 164 173 171 168 167 165 163 161 160 162 166 171 168 163 153 153 159 170 177 183 182 167 139 121 141 188 227 161 144 151 153 146 146 134 129
125 148 161 160 156 158 162 163 171 175 175 178 171 173 167 165 164 166 169 179 178 171 158 157 161 173 190 193 191 197 147 147 191 185 159 177 157 155 158 155 148 140 139
284 145 169 160 168 167 183 174 170 178 184 181 179 175 162 168 171 170 172 181 180 174 161 162 165 170 189 212 204 216 173 202 208 176 161 169 165 162 160 154 151 149 149
241 200 156 161 178 168 183 169 173 181 182 183 174 183 182 174 174 175 175 179 178 170 168 166 169 170 166 180 226 227 199 212 219 192 190 171 172 167 164 158 156 157 156
358 174 178 177 187 175 200 171 186 184 181 182 181 173 195 190 184 181 182 176 173 168 169 160 164 170 183 187 193 220 231 208 181 203 177 178 176 164 171 167 164 164 166
325 153 178 176 195 265 199 186 190 188 183 184 186 175 188 204 194 196 186 176 172 168 171 169 173 185 187 202 199 208 225 225 155 179 180 173 174 176 173 176 172 174 174
357 15 194 170 185 215 263 224 227 211 202 193 185 184 180 199 202 192 188 178 178 168 177 175 173 188 205 195 200 205 228 217 148 160 151 176 192 178 171 180 179 181 175
42 30 31 27 2 331 274 257 250 240 210 204 196 198 189 189 193 196 185 185 182 179 180 179 180 185 203 193 182 196 211 213 158 172 177 186 180 178 175 182 183 185 180
42 30 22 15 19 15 6 341 297 266 250 229 214 212 194 189 200 192 191 183 187 185 186 184 182 182 190 211 184 181 191 212 196 164 170 182 180 192 183 184 184 187 189
36 34 22 16 11 5 356 343 332 321 287 267 252 224 219 203 198 192 195 197 182 189 182 187 185 182 187 190 202 161 188 208 209 178 169 165 189 190 196 194 193 192 194
33 26 22 15 7 360 352 345 341 329 307 282 260 252 239 224 215 198 196 204 180 193 184 186 188 185 187 185 194 186 174 200 207 199 183 174 190 181 186 201 194 189 188
30 23 16 9 6 359 352 344 338 339 341 334 302 253 248 245 219 227 199 188 203 197 185 193 182 185 185 186 185 198 181 186 195 193 203 186 188 185 179 185 195 194 190
24 19 13 8 5 2 355 348 338 327 321 315 307 315 277 230 219 227 203 197 215 227 201 191 182 178 181 173 148 186 224 188 198 197 195 200 191 189 185 183 182 187 196
19 13 9 6 2 357 345 332 324 317 309 308 304 296 283 289 231 215 204 236 218 224 220 195 190 184 175 176 175 133 185 236 224 207 192 199 207 191 182 188 183 186 191
16 7 3 358 353 346 341 330 323 313 310 313 314 315 314 319 295 237 212 222 213 222 218 211 204 187 182 185 183 156 160 205 138 177 213 205 201 197 201 188 190 186 187
6 357 354 350 341 332 336 332 322 310 304 304 302 302 310 311 306 300 242 223 215 215 216 215 207 205 188 188 186 205 175 146 171 166 225 213 195 192 192 192 192 196 194
360 356 349 337 330 330 320 318 314 303 300 302 296 300 299 301 299 295 298 247 230 224 213 211 208 207 197 191 195 187 201 158 141 144 177 194 204 190 193 191 195 198 198
353 345 339 331 327 321 314 310 302 295 298 296 296 297 297 294 292 289 289 288 246 231 229 220 218 205 193 201 198 201 201 199 194 161 153 176 191 200 191 195 192 197 200